• In Hungary
  • List of Countries
  • For 7 days
  • Water Temperature
  • Satellite Maps
  • Weather Map
  • News
  • Weather Widgets
  • user-avatar
    Login

    Hourly Weather Horodysche

    Today, 20 October, Friday

    Time Temperature Precipitation Wind Pressure Humidity
    00:00 +12°C° 0 mm 3 mps 754 mmHg 84%
    01:00 +11°C° 0 mm 3 mps 754 mmHg 85%
    02:00 +11°C° 0 mm 3 mps 754 mmHg 87%
    03:00 +11°C° 0 mm 3 mps 754 mmHg 87%
    04:00 +10°C° 0 mm 3 mps 754 mmHg 88%
    05:00 +10°C° 0 mm 3 mps 754 mmHg 88%
    06:00 +10°C° 0 mm 4 mps 754 mmHg 85%
    07:00 +11°C° 0 mm 4 mps 754 mmHg 82%
    08:00 +11°C° 0 mm 4 mps 754 mmHg 79%
    09:00 +12°C° 0 mm 4 mps 755 mmHg 74%
    10:00 +14°C° 0 mm 4 mps 755 mmHg 68%
    11:00 +15°C° 0 mm 5 mps 755 mmHg 63%
    12:00 +15°C° 0 mm 5 mps 755 mmHg 62%
    13:00 +15°C° 0 mm 5 mps 755 mmHg 60%
    14:00 +16°C° 0 mm 5 mps 755 mmHg 58%
    15:00 +14°C° 0 mm 4 mps 755 mmHg 60%
    16:00 +13°C° 0 mm 4 mps 755 mmHg 63%
    17:00 +12°C° 0 mm 3 mps 755 mmHg 65%
    18:00 +11°C° 0 mm 3 mps 756 mmHg 65%
    19:00 +10°C° 0 mm 3 mps 756 mmHg 66%
    20:00 +10°C° 0 mm 4 mps 756 mmHg 66%
    21:00 +9°C° 0 mm 3 mps 756 mmHg 66%
    22:00 +8°C° 0 mm 3 mps 756 mmHg 67%
    23:00 +8°C° 0 mm 3 mps 757 mmHg 68%

    Tomorrow, 21 October, Saturday

    Time Temperature Precipitation Wind Pressure Humidity
    00:00 +7°C° 0 mm 3 mps 757 mmHg 69%
    01:00 +7°C° 0 mm 3 mps 757 mmHg 70%
    02:00 +5°C° 0 mm 3 mps 757 mmHg 70%
    03:00 +5°C° 0 mm 3 mps 757 mmHg 71%
    04:00 +4°C° 0 mm 3 mps 757 mmHg 72%
    05:00 +4°C° 0 mm 3 mps 757 mmHg 73%
    06:00 +4°C° 0 mm 3 mps 757 mmHg 71%
    07:00 +5°C° 0 mm 3 mps 757 mmHg 69%
    08:00 +5°C° 0 mm 3 mps 757 mmHg 66%
    09:00 +8°C° 0 mm 3 mps 757 mmHg 60%
    10:00 +9°C° 0 mm 3 mps 757 mmHg 53%
    11:00 +10°C° 0 mm 3 mps 757 mmHg 46%
    12:00 +11°C° 0 mm 3 mps 757 mmHg 44%
    13:00 +11°C° 0 mm 3 mps 757 mmHg 41%
    14:00 +12°C° 0 mm 3 mps 756 mmHg 38%
    15:00 +12°C° 0 mm 2 mps 756 mmHg 42%
    16:00 +10°C° 0 mm 2 mps 756 mmHg 45%
    17:00 +9°C° 0 mm 2 mps 756 mmHg 49%
    18:00 +8°C° 0 mm 2 mps 756 mmHg 51%
    19:00 +8°C° 0 mm 2 mps 756 mmHg 52%
    20:00 +7°C° 0 mm 2 mps 756 mmHg 54%
    21:00 +7°C° 0 mm 2 mps 756 mmHg 55%
    22:00 +7°C° 0 mm 2 mps 756 mmHg 57%
    23:00 +7°C° 0 mm 2 mps 756 mmHg 58%

    Day after tomorrow, 22 October, Sunday

    Time Temperature Precipitation Wind Pressure Humidity
    00:00 +7°C° 0.1 mm 2 mps 756 mmHg 59%
    01:00 +7°C° 0.1 mm 2 mps 756 mmHg 61%
    02:00 +6°C° 0.1 mm 2 mps 756 mmHg 62%
    03:00 +6°C° 0 mm 2 mps 756 mmHg 64%
    04:00 +5°C° 0 mm 2 mps 756 mmHg 66%
    05:00 +5°C° 0 mm 2 mps 756 mmHg 67%
    06:00 +4°C° 0 mm 3 mps 756 mmHg 66%
    07:00 +4°C° 0 mm 3 mps 757 mmHg 65%
    08:00 +4°C° 0 mm 3 mps 757 mmHg 64%
    09:00 +7°C° 0 mm 3 mps 757 mmHg 59%
    10:00 +8°C° 0 mm 3 mps 757 mmHg 53%
    11:00 +9°C° 0 mm 3 mps 757 mmHg 48%
    12:00 +10°C° 0 mm 2 mps 757 mmHg 46%
    13:00 +10°C° 0 mm 2 mps 756 mmHg 44%
    14:00 +10°C° 0 mm 2 mps 756 mmHg 42%
    15:00 +9°C° 0 mm 2 mps 756 mmHg 45%
    16:00 +8°C° 0 mm 2 mps 756 mmHg 48%
    17:00 +7°C° 0 mm 2 mps 756 mmHg 51%
    18:00 +6°C° 0 mm 2 mps 757 mmHg 53%
    19:00 +5°C° 0 mm 2 mps 757 mmHg 55%
    20:00 +5°C° 0 mm 2 mps 757 mmHg 57%
    21:00 +4°C° 0 mm 2 mps 757 mmHg 58%
    22:00 +4°C° 0 mm 2 mps 757 mmHg 59%
    23:00 +3°C° 0 mm 2 mps 757 mmHg 61%

    23 October, Monday

    Time Temperature Precipitation Wind Pressure Humidity
    00:00 +3°C° 0 mm 2 mps 757 mmHg 62%
    01:00 +3°C° 0 mm 2 mps 758 mmHg 63%
    02:00 +2°C° 0 mm 2 mps 758 mmHg 64%
    03:00 +2°C° 0 mm 2 mps 758 mmHg 64%
    04:00 +2°C° 0 mm 2 mps 758 mmHg 65%
    05:00 +2°C° 0 mm 2 mps 758 mmHg 66%
    06:00 +2°C° 0 mm 2 mps 758 mmHg 64%
    07:00 +3°C° 0 mm 2 mps 758 mmHg 61%
    08:00 +2°C° 0 mm 3 mps 758 mmHg 59%
    09:00 +4°C° 0 mm 3 mps 758 mmHg 54%
    10:00 +5°C° 0 mm 3 mps 758 mmHg 49%
    11:00 +8°C° 0 mm 3 mps 758 mmHg 44%
    12:00 +9°C° 0 mm 3 mps 758 mmHg 42%
    13:00 +9°C° 0 mm 2 mps 758 mmHg 40%
    14:00 +10°C° 0 mm 2 mps 757 mmHg 38%
    15:00 +8°C° 0 mm 2 mps 758 mmHg 41%
    16:00 +7°C° 0 mm 2 mps 758 mmHg 44%
    17:00 +6°C° 0 mm 2 mps 758 mmHg 47%
    18:00 +5°C° 0 mm 2 mps 758 mmHg 48%
    19:00 +4°C° 0 mm 3 mps 758 mmHg 49%
    20:00 +3°C° 0 mm 3 mps 759 mmHg 51%
    21:00 +3°C° 0 mm 3 mps 759 mmHg 52%
    22:00 +2°C° 0 mm 3 mps 759 mmHg 52%
    23:00 +2°C° 0 mm 3 mps 759 mmHg 53%

    24 October, Tuesday

    Time Temperature Precipitation Wind Pressure Humidity
    00:00 +1°C° 0 mm 3 mps 759 mmHg 54%
    01:00 +1°C° 0 mm 3 mps 759 mmHg 55%
    02:00 +2°C° 0 mm 2 mps 760 mmHg 55%
    03:00 0°C° 0 mm 3 mps 760 mmHg 56%
    04:00 0°C° 0 mm 3 mps 760 mmHg 57%
    05:00 0°C° 0 mm 3 mps 760 mmHg 58%
    06:00 0°C° 0 mm 3 mps 761 mmHg 57%
    07:00 +1°C° 0 mm 3 mps 761 mmHg 55%
    08:00 +1°C° 0 mm 3 mps 761 mmHg 53%
    09:00 +3°C° 0 mm 3 mps 761 mmHg 49%
    10:00 +4°C° 0 mm 3 mps 762 mmHg 44%
    11:00 +7°C° 0 mm 3 mps 762 mmHg 39%
    12:00 +7°C° 0 mm 3 mps 762 mmHg 38%
    13:00 +8°C° 0 mm 3 mps 762 mmHg 38%
    14:00 +7°C° 0 mm 4 mps 761 mmHg 37%
    15:00 +7°C° 0 mm 3 mps 762 mmHg 41%
    16:00 +5°C° 0 mm 3 mps 762 mmHg 45%
    17:00 +4°C° 0 mm 3 mps 762 mmHg 49%
    18:00 +3°C° 0 mm 3 mps 762 mmHg 51%
    19:00 +3°C° 0 mm 3 mps 763 mmHg 53%
    20:00 +1°C° 0 mm 4 mps 763 mmHg 55%
    21:00 +1°C° 0 mm 4 mps 764 mmHg 55%
    22:00 0°C° 0 mm 4 mps 764 mmHg 56%
    23:00 0°C° 0 mm 4 mps 764 mmHg 56%

    25 October, Wednesday

    Time Temperature Precipitation Wind Pressure Humidity
    00:00 0°C° 0 mm 4 mps 765 mmHg 57%
    01:00 -1°C° 0 mm 4 mps 765 mmHg 58%
    02:00 -1°C° 0 mm 4 mps 766 mmHg 59%
    03:00 -1°C° 0 mm 4 mps 766 mmHg 62%
    04:00 -2°C° 0 mm 4 mps 766 mmHg 64%
    05:00 -2°C° 0 mm 4 mps 766 mmHg 67%
    06:00 -2°C° 0 mm 4 mps 767 mmHg 65%
    07:00 -1°C° 0 mm 5 mps 767 mmHg 64%
    08:00 -1°C° 0 mm 5 mps 768 mmHg 63%
    09:00 0°C° 0 mm 5 mps 768 mmHg 57%
    10:00 +2°C° 0 mm 6 mps 768 mmHg 52%
    11:00 +3°C° 0 mm 6 mps 768 mmHg 46%
    12:00 +3°C° 0 mm 6 mps 768 mmHg 44%
    13:00 +4°C° 0 mm 6 mps 768 mmHg 42%
    14:00 +4°C° 0 mm 6 mps 768 mmHg 41%
    15:00 +3°C° 0 mm 5 mps 768 mmHg 44%
    16:00 +3°C° 0 mm 4 mps 769 mmHg 47%
    17:00 +1°C° 0 mm 4 mps 769 mmHg 50%
    18:00 0°C° 0 mm 4 mps 769 mmHg 53%
    19:00 0°C° 0 mm 4 mps 769 mmHg 56%
    20:00 -1°C° 0 mm 4 mps 770 mmHg 58%
    21:00 -1°C° 0 mm 4 mps 770 mmHg 60%
    22:00 -1°C° 0 mm 4 mps 770 mmHg 62%
    23:00 -2°C° 0 mm 4 mps 771 mmHg 64%
    Show more